[[{"header":{"parameterUnit":"m.s-1","parameterCategory":1,"la1":30.2991,"la2":30.254,"lo1":-89.0895,"lo2":-89.0444,"dx":0.0017,"dy":0.0017,"nx":28,"ny":28,"refTime":"2022-12-03T09:00:00:Z","depth":0,"parameterNumber":2,"parameterNumberName":"U-component_of_WINDS"},"data":[0,0,0,0,0,0,0,0,0,0,0,0,0,0,0,0,0,0,0,0,0,0,0,0,0,0,0,0,0,0,0,0,0,0,0,0,0,0,0,0,0,0,0,0,0,0,0,0,0,0,0,0,0,0,0,0,0,0,0.4639,0.4639,0,0.4668,0.4669,0.4669,0.4663,0.4663,0.4662,0.4662,0.4694,0.4695,0.4697,0,0,0,0,0,0,0,0,0,0,0,0,0,0.4578,0.4579,0.4639,0.4639,0.464,0.4668,0.4669,0.4669,0.4663,0.4663,0.4662,0.4661,0.4694,0.4695,0.4697,0,0,0,0,0,0,0,0,0,0,0,0,0,0.4606,0.458,0.4639,0.464,0.464,0.4668,0.4669,0.4669,0.4663,0.4663,0.4662,0.4661,0.4693,0.4695,0.4697,0.4726,0,0,0.4703,0.4704,0,0,0,0,0,0,0,0,0.4604,0.4608,0.464,0.464,0.4641,0.4661,0.4659,0.4688,0.4664,0.4655,0.4662,0.4661,0.4684,0.4687,0.4694,0.4728,0.4729,0.4704,0.4705,0.4706,0.4706,0,0,0,0,0,0,0,0.4602,0.4607,0.4651,0.464,0.4641,0.4639,0.4642,0.4665,0.4674,0.4656,0.4655,0.4659,0.4684,0.4692,0.4695,0.473,0.4704,0.4705,0.4707,0.4707,0.4786,0.4787,0,0,0,0,0,0,0.46,0.4605,0.465,0.4651,0.462,0.4641,0.4645,0.4655,0.4673,0.4675,0.4659,0.4658,0.4689,0.4692,0.4696,0.4729,0.4706,0.4708,0.4709,0.4785,0.4786,0.4787,0,0,0,0,0,0,0.4598,0.4604,0.4648,0.4628,0.4634,0.4643,0.4655,0.4657,0.4664,0.4676,0.4678,0.4666,0.4689,0.4693,0.4718,0.4731,0.4709,0.471,0.4784,0.4786,0.4787,0.4798,0,0,0,0,0,0,0.4597,0.4603,0.4614,0.4628,0.4635,0.467,0.4656,0.4658,0.4668,0.4667,0.4683,0.4685,0.4688,0.4715,0.472,0.4733,0.4712,0.4783,0.4785,0.4786,0.4796,0.4799,0.4802,0,0,0,0,0,0.4595,0.4617,0.4615,0.462,0.4649,0.4671,0.4674,0.4677,0.4669,0.468,0.4687,0.4684,0.4729,0.4718,0.4723,0.4737,0.4782,0.4784,0.4786,0.4795,0.4799,0.4802,0,0,0,0,0,0,0.4605,0.4619,0.4617,0.4645,0.4656,0.467,0.4684,0.4681,0.4696,0.4695,0.4699,0.4702,0.4727,0.4735,0.4722,0.4765,0.4754,0.4757,0.4759,0.4763,0.4765,0.4763,0.4714,0,0,0,0,0,0.4611,0.4627,0.4638,0.4662,0.4668,0.4675,0.4684,0.4685,0.4698,0.4703,0.4712,0.4725,0.4742,0.4753,0.4769,0.4798,0.48,0.481,0.4813,0.4815,0.4817,0.4831,0.4835,0.4794,0.4794,0.4794,0,0,0.4623,0.4632,0.4642,0.4664,0.4673,0.469,0.4679,0.4698,0.471,0.4706,0.473,0.4737,0.4751,0.4778,0.479,0.4785,0.4829,0.4817,0.4819,0.482,0.4834,0.4837,0.4841,0.4795,0.4795,0.4795,0,0,0.4652,0.4662,0.4681,0.469,0.4704,0.4708,0.4713,0.4726,0.473,0.4753,0.4751,0.4766,0.4795,0.4804,0.4813,0.4845,0.4842,0.485,0.4864,0.4878,0.4881,0.4884,0.4893,0.4897,0.4852,0.4853,0.4853,0,0.4665,0.469,0.4692,0.471,0.4719,0.4715,0.4735,0.4744,0.4763,0.4769,0.4763,0.4798,0.4807,0.4835,0.4842,0.485,0.4855,0.4848,0.488,0.4883,0.4886,0.4895,0.4899,0.4853,0.4853,0.4853,0.4853,0,0.4704,0.4721,0.4735,0.4752,0.4763,0.4782,0.4786,0.4797,0.4797,0.4802,0.4825,0.4836,0.4853,0.486,0.4861,0.4888,0.4884,0.4879,0.4868,0.489,0.4899,0.4903,0.4854,0.4854,0.4854,0.4854,0,0,0.4742,0.4758,0.4763,0.477,0.4784,0.4797,0.4815,0.4831,0.484,0.4853,0.4867,0.4891,0.4886,0.4896,0.4898,0.491,0.4932,0.4903,0.4903,0.4907,0.496,0.4963,0.4967,0.493,0.4931,0.4932,0.4958,0,0.4772,0.4803,0.4805,0.4833,0.4848,0.4844,0.486,0.487,0.4875,0.4888,0.4894,0.491,0.4903,0.4908,0.492,0.4927,0.4942,0.4925,0.4944,0.4944,0.4939,0.4972,0.4976,0.5,0.4962,0.4963,0.4963,0,0.4811,0.4823,0.4852,0.4863,0.4869,0.4883,0.4897,0.491,0.4921,0.4924,0.4934,0.4933,0.4952,0.494,0.4965,0.4953,0.4961,0.4965,0.4966,0.4967,0.4954,0.4973,0.5008,0.5012,0.4969,0.4968,0.4968,0,0.4833,0.4857,0.4878,0.4884,0.4897,0.4906,0.4912,0.4923,0.4931,0.4944,0.4949,0.4964,0.4972,0.4983,0.4987,0.4979,0.5011,0.5,0.5013,0.5013,0.502,0.5019,0.5056,0.5026,0.5026,0.5026,0.5026,0,0.4866,0.4883,0.4887,0.49,0.492,0.4921,0.4941,0.4946,0.4955,0.4968,0.4967,0.4979,0.4983,0.4996,0.4999,0.5018,0.5022,0.5025,0.5025,0.5024,0.5024,0.5029,0.5027,0.5027,0.5027,0.5027,0.5027,0,0.4894,0.4898,0.4919,0.4929,0.4932,0.4946,0.4954,0.4966,0.497,0.4987,0.4991,0.4997,0.5012,0.5017,0.5036,0.5037,0.5059,0.5059,0.5055,0.5055,0.5067,0.5065,0.5107,0.5112,0.5081,0.5081,0.5081,0,0.4914,0.4927,0.4938,0.4946,0.4952,0.4966,0.4974,0.4976,0.4986,0.4998,0.5008,0.5023,0.5035,0.5059,0.5066,0.5079,0.5078,0.5092,0.5081,0.5079,0.5077,0.5076,0.5076,0.5094,0.5095,0.5095,0.5095,0,0.4948,0.4949,0.4961,0.4973,0.4983,0.4994,0.5003,0.501,0.5014,0.5024,0.5039,0.5048,0.5066,0.508,0.5094,0.51,0.5098,0.5099,0.5102,0.5101,0.5098,0.5098,0.506,0.5098,0.5097,0.5097,0.5097,0.5097,0.4972,0.4983,0.4992,0.5005,0.5012,0.5021,0.5032,0.5037,0.5049,0.5063,0.5064,0.5079,0.5089,0.5107,0.5114,0.5126,0.5122,0.5127,0.5129,0.513,0.513,0.5096,0.5129,0.5129,0.5129,0.5129,0.5129,0,0.5005,0.501,0.5023,0.5035,0.5045,0.5042,0.5052,0.5061,0.5074,0.5083,0.5094,0.5111,0.5124,0.5131,0.5144,0.5153,0.5152,0.5156,0.5155,0.5156,0.5133,0.5128,0.5156,0.5156,0.5156,0.5156,0.5156,0.5156,0.5024,0.5042,0.5043,0.5064,0.5069,0.5084,0.509,0.5098,0.5105,0.5123,0.5133,0.5137,0.5145,0.5159,0.5171,0.5172,0.5177,0.5181,0.5182,0.5161,0.5158,0.5155,0.515,0.5182,0.5182,0.5204,0.5204,0.5204]},{"header":{"parameterUnit":"m.s-1","parameterCategory":1,"la1":30.2991,"la2":30.254,"lo1":-89.0895,"lo2":-89.0444,"dx":0.0017,"dy":0.0017,"nx":28,"ny":28,"refTime":"2022-12-03T09:00:00:Z","depth":0,"parameterNumber":3,"parameterNumberName":"V-component_of_WINDS"},"data":[0,0,0,0,0,0,0,0,0,0,0,0,0,0,0,0,0,0,0,0,0,0,0,0,0,0,0,0,0,0,0,0,0,0,0,0,0,0,0,0,0,0,0,0,0,0,0,0,0,0,0,0,0,0,0,0,0,0,1.6258,1.6256,0,1.6127,1.6126,1.6124,1.6055,1.6055,1.6054,1.6054,1.5913,1.591,1.5906,0,0,0,0,0,0,0,0,0,0,0,0,0,1.644,1.6437,1.6258,1.6256,1.6255,1.6128,1.6126,1.6124,1.6055,1.6055,1.6054,1.6054,1.5915,1.591,1.5906,0,0,0,0,0,0,0,0,0,0,0,0,0,1.634,1.6436,1.6258,1.6205,1.6199,1.6128,1.6126,1.6123,1.6055,1.6055,1.6054,1.6054,1.5916,1.5911,1.5905,1.5875,0,0,1.5889,1.5886,0,0,0,0,0,0,0,0,1.6346,1.6333,1.6214,1.6208,1.6202,1.6107,1.6138,1.604,1.6055,1.6109,1.6054,1.6054,1.5978,1.5967,1.5943,1.5868,1.5862,1.5888,1.5885,1.5882,1.5881,0,0,0,0,0,0,0,1.6353,1.6339,1.6206,1.6213,1.6205,1.6185,1.6171,1.6119,1.6046,1.6104,1.6099,1.6085,1.5974,1.5948,1.5939,1.586,1.5888,1.5883,1.588,1.5878,1.5753,1.5753,0,0,0,0,0,0,1.6369,1.6345,1.621,1.6202,1.6275,1.6182,1.6166,1.6138,1.6046,1.6032,1.6085,1.6082,1.5958,1.5945,1.5934,1.5891,1.5882,1.5877,1.5874,1.5753,1.5753,1.5753,0,0,0,0,0,0,1.6374,1.6358,1.6215,1.6272,1.6252,1.6179,1.6148,1.6135,1.6109,1.6032,1.6018,1.6073,1.5957,1.5941,1.589,1.5886,1.5875,1.587,1.5753,1.5753,1.5753,1.5808,0,0,0,0,0,0,1.6379,1.636,1.6349,1.6272,1.625,1.6177,1.6147,1.6133,1.6101,1.6096,1.6016,1.6003,1.5956,1.5899,1.5885,1.5878,1.5866,1.5754,1.5753,1.5753,1.5806,1.581,1.5813,0,0,0,0,0,1.6386,1.6368,1.6349,1.6333,1.6235,1.6177,1.6163,1.6111,1.6101,1.6088,1.6039,1.6005,1.5889,1.5894,1.5878,1.5869,1.5754,1.5753,1.5753,1.5804,1.5809,1.5813,0,0,0,0,0,0,1.6444,1.6357,1.6335,1.6293,1.6243,1.6165,1.6148,1.6118,1.6068,1.6064,1.6,1.5982,1.5937,1.5898,1.5906,1.5835,1.5818,1.5814,1.5862,1.5865,1.5869,1.5879,1.5861,0,0,0,0,0,1.6452,1.6414,1.6339,1.6309,1.6285,1.6221,1.6194,1.6158,1.6103,1.6081,1.6027,1.5973,1.5923,1.5892,1.5843,1.58,1.5781,1.5786,1.5789,1.5793,1.579,1.5763,1.5764,1.5753,1.5753,1.5753,0,0,1.6468,1.6416,1.6395,1.6319,1.6277,1.6236,1.6204,1.6163,1.6131,1.6073,1.6023,1.5982,1.5916,1.587,1.5846,1.5835,1.5789,1.5792,1.5796,1.5791,1.5764,1.5765,1.5766,1.5753,1.5753,1.5753,0,0,1.6476,1.6434,1.6404,1.6362,1.6299,1.6256,1.6249,1.6176,1.6147,1.6096,1.6052,1.6013,1.593,1.5885,1.5852,1.5844,1.5811,1.5829,1.5846,1.5821,1.5822,1.5822,1.5818,1.5818,1.5827,1.5827,1.5828,0,1.6503,1.6443,1.6391,1.6353,1.632,1.6269,1.6237,1.6198,1.6121,1.6098,1.6088,1.5984,1.5936,1.5878,1.5876,1.5851,1.5839,1.5838,1.5827,1.5826,1.5826,1.5821,1.582,1.583,1.583,1.5829,1.5829,0,1.6479,1.6438,1.6421,1.6351,1.6316,1.6281,1.6222,1.6192,1.616,1.6118,1.6066,1.6007,1.5945,1.5929,1.5895,1.5865,1.586,1.5839,1.5821,1.5831,1.5825,1.5823,1.5834,1.5833,1.5832,1.5831,0,0,1.6518,1.6421,1.6416,1.6383,1.631,1.6276,1.6238,1.618,1.6156,1.6104,1.6069,1.6001,1.5981,1.5943,1.5904,1.5883,1.5879,1.5864,1.5861,1.5868,1.5841,1.5857,1.5856,1.5858,1.5857,1.5857,1.5846,0,1.6515,1.6448,1.64,1.635,1.6311,1.6262,1.6228,1.6179,1.6138,1.6097,1.6051,1.6004,1.5982,1.5959,1.5935,1.5885,1.5873,1.5885,1.5822,1.5821,1.584,1.5853,1.5869,1.5862,1.5844,1.5843,1.5843,0,1.6503,1.6456,1.6403,1.6334,1.6316,1.6287,1.6229,1.6192,1.6134,1.6106,1.6064,1.6025,1.5981,1.5967,1.5904,1.5913,1.5885,1.5856,1.5854,1.5845,1.5832,1.5843,1.5859,1.5857,1.5839,1.584,1.584,0,1.6536,1.6459,1.6417,1.6391,1.631,1.6291,1.6256,1.6198,1.6166,1.6115,1.6093,1.6037,1.6006,1.5962,1.5908,1.5904,1.585,1.5832,1.5823,1.5825,1.5813,1.5814,1.5823,1.5797,1.5797,1.5797,1.5797,0,1.6537,1.6506,1.6432,1.6406,1.6369,1.6314,1.6278,1.6238,1.6188,1.6151,1.6105,1.6071,1.6003,1.596,1.5917,1.587,1.5857,1.5831,1.582,1.5835,1.5838,1.5814,1.5813,1.5797,1.5797,1.5797,1.5797,0,1.6568,1.6517,1.6468,1.6396,1.6377,1.6354,1.6291,1.6262,1.6221,1.6175,1.6161,1.6094,1.6042,1.5984,1.5911,1.5882,1.5838,1.5822,1.5858,1.5852,1.5846,1.5847,1.5839,1.5834,1.5813,1.5813,1.5814,0,1.6571,1.6547,1.6473,1.6447,1.6414,1.6372,1.634,1.6285,1.6253,1.6185,1.6165,1.6109,1.6062,1.598,1.5923,1.5867,1.5849,1.585,1.584,1.5856,1.5848,1.585,1.5846,1.5853,1.5853,1.5854,1.5854,0,1.6583,1.6559,1.6516,1.6465,1.6429,1.6384,1.6338,1.6318,1.6253,1.6219,1.6166,1.613,1.6057,1.6002,1.5939,1.59,1.5865,1.5858,1.5853,1.5867,1.5889,1.5876,1.5865,1.5858,1.5858,1.5857,1.5857,1.5857,1.6599,1.6575,1.652,1.6474,1.6434,1.6392,1.6362,1.6317,1.6273,1.6212,1.6181,1.6128,1.6069,1.5982,1.5944,1.59,1.5889,1.5882,1.588,1.5879,1.5882,1.5897,1.5888,1.5888,1.5888,1.5888,1.5888,0,1.6608,1.657,1.6528,1.6467,1.643,1.6404,1.6351,1.6321,1.6276,1.6226,1.6181,1.612,1.6066,1.6006,1.5948,1.5925,1.5907,1.5911,1.5911,1.5903,1.5896,1.5906,1.5926,1.5926,1.5926,1.5926,1.5926,1.5926,1.6608,1.6566,1.6536,1.6472,1.6434,1.6385,1.6357,1.6317,1.6276,1.6212,1.6168,1.613,1.6075,1.6013,1.5962,1.5945,1.5925,1.5934,1.5912,1.5907,1.5903,1.59,1.5909,1.593,1.593,1.5923,1.5923,1.5923]}]]